Wind_Speed
9 9 7 3 3 5 4 2 2 2 3 2 2 3 3 3 3 3 3 4 4 5 5 6 6 7 7 7 7 7 7 7 7 7 7 7 7 7 8 9 10 11 12 11 11 12 12 12 11 11 12 13 13 14 14 14 14 14 15 16 16 17 17
8 8 6 2 3 5 4 3 3 3 2 2 1 2 2 3 3 3 3 4 3 3 4 4 3 3 3 3 4 4 5 6 7 7 7 7 8 9 10 11 12 13 13 13 13 13 14 14 14 14 15 15 16 16 16 17 17 18 18 19 20 20 21
8 7 6 2 3 4 4 4 4 3 2 2 2 1 1 2 3 4 4 4 3 3 2 2 1 0 1 2 3 4 5 6 7 8 9 9 10 11 12 13 13 14 14 15 15 15 16 16 16 17 17 18 18 18 19 19 20 21 21 22 23 23 24
9 7 5 2 3 5 5 5 5 4 3 3 2 2 0 1 3 3 3 3 3 2 2 2 1 2 3 4 5 5 6 7 8 10 11 11 12 13 14 14 15 15 16 16 17 17 18 18 19 19 20 21 21 21 22 22 23 23 24 25 25 26 26
10 8 6 2 3 6 6 5 5 4 4 2 2 2 1 2 3 3 3 3 3 3 3 3 3 3 4 5 6 7 7 8 9 10 12 13 13 14 15 16 16 17 17 18 18 19 20 21 21 22 23 23 24 24 25 25 26 26 27 28 28 29 30
11 8 7 3 3 7 7 6 6 5 3 2 2 2 2 2 3 4 4 4 5 5 6 6 6 6 6 7 8 9 9 10 11 12 13 14 15 16 16 17 18 19 19 20 21 22 22 23 24 25 25 26 27 27 28 28 29 29 30 30 31 32 32
12 9 8 6 1 5 8 7 6 5 3 3 3 3 3 3 3 4 4 5 6 7 7 8 8 8 9 9 10 11 11 12 13 14 15 16 17 18 19 20 20 21 22 23 24 24 25 26 26 27 28 28 29 30 31 31 31 32 32 33 33 34 34
13 11 9 8 5 2 6 7 6 4 4 4 3 3 4 4 4 4 5 6 7 8 9 10 10 11 11 12 12 13 13 14 15 16 17 18 19 20 21 22 22 23 24 25 26 26 27 28 28 29 29 30 30 31 32 32 33 33 33 34 34 35 35
13 13 11 10 8 5 3 5 5 5 5 5 4 4 4 5 5 5 6 7 8 9 10 11 12 13 14 14 15 15 16 16 17 17 18 19 20 21 21 22 23 24 25 26 26 27 28 28 29 29 29 30 30 31 31 32 33 33 34 35 35 36 37
13 14 14 12 9 7 4 1 3 5 6 6 7 6 6 7 7 7 8 9 10 10 11 12 13 15 16 17 17 18 18 19 19 20 21 21 22 23 23 24 25 25 26 26 27 27 28 28 29 29 29 30 30 31 32 33 34 35 36 36 37 38 38
13 14 16 15 12 9 5 2 1 2 3 4 6 7 7 8 9 9 10 10 11 11 12 13 14 15 16 17 17 18 18 19 20 21 22 23 24 24 25 25 26 26 27 27 28 28 29 29 30 30 31 31 32 33 33 34 35 36 37 37 38 38 39
14 17 17 15 13 11 6 2 1 1 1 1 3 4 5 6 7 8 8 9 9 10 11 12 13 13 14 15 15 16 17 18 20 21 22 23 24 24 25 26 26 27 27 28 29 29 30 30 31 31 32 32 33 34 34 35 35 36 37 38 38 39 39
16 19 18 14 12 11 8 4 1 0 1 0 1 2 3 4 5 6 6 7 8 9 10 11 11 12 12 13 14 15 17 18 19 20 21 23 24 25 25 26 26 27 27 28 29 29 30 31 31 32 32 33 34 34 35 36 36 37 38 38 39 39 40
16 18 17 14 11 11 10 7 4 3 3 3 3 3 3 4 5 6 7 8 9 9 10 11 11 12 13 14 15 16 17 19 20 21 22 23 25 25 26 26 26 27 28 29 30 30 31 32 32 33 33 34 35 35 36 36 37 38 38 39 39 40 41
16 17 15 13 11 10 10 10 8 7 7 6 5 5 5 6 7 8 9 10 10 10 11 12 13 14 15 16 17 18 20 21 22 23 24 25 27 28 28 28 28 29 29 30 31 32 33 34 34 35 35 35 36 36 36 37 37 38 38 39 39 40 40
14 15 14 13 12 12 11 11 9 9 8 8 7 6 6 6 8 9 9 10 10 11 12 13 14 16 17 19 20 21 22 23 24 25 26 27 29 30 31 30 30 30 31 32 33 35 36 36 36 36 36 36 37 37 38 38 38 38 38 38 39 39 39
13 14 14 14 14 14 13 12 11 10 9 9 9 8 8 8 9 9 10 10 10 11 12 13 14 16 18 20 21 22 24 25 26 27 27 29 31 32 33 33 32 32 32 33 34 35 37 37 37 36 36 37 38 39 39 39 38 38 38 38 38 39 39
13 15 16 16 16 16 15 14 13 12 11 11 11 11 11 11 10 10 10 11 11 12 13 14 15 17 19 21 22 23 24 25 26 26 28 29 31 32 33 34 33 33 33 34 35 37 39 39 38 37 38 39 39 40 39 38 38 38 38 38 39 39 40
14 16 18 19 18 17 16 15 15 14 14 14 14 14 13 13 12 12 12 12 12 13 14 15 17 19 21 21 22 22 23 24 25 26 27 28 29 30 30 31 31 31 32 33 34 35 37 39 39 39 40 40 40 40 39 38 38 38 39 40 41 42 43
16 17 20 20 19 18 16 16 16 15 15 16 16 15 14 14 13 13 13 13 13 14 15 17 19 20 21 21 22 23 23 23 24 25 25 25 26 27 28 28 27 27 27 29 30 31 31 33 35 37 39 39 39 39 39 39 39 40 41 42 43 45 46
18 19 21 21 20 18 17 17 18 17 17 17 16 16 14 13 13 13 12 13 14 15 17 19 20 20 21 22 22 22 23 23 24 24 23 23 23 23 24 24 25 25 27 29 30 30 30 31 32 34 36 37 38 38 39 40 41 42 43 44 45 45 44
20 21 22 23 22 20 19 19 20 19 18 17 16 15 14 13 13 12 12 13 15 17 19 20 21 22 22 22 22 23 23 24 24 23 23 22 22 21 22 23 24 27 29 31 31 32 32 33 33 34 35 36 38 39 40 41 42 43 43 43 42 41 40
23 23 24 26 25 23 21 20 20 19 18 17 16 15 14 13 12 11 12 14 15 18 20 22 23 24 24 23 23 23 24 24 22 22 22 22 22 23 24 25 27 29 30 31 32 33 34 35 35 36 37 38 39 40 41 41 42 41 41 39 38 38 38
25 27 28 28 27 23 21 20 19 18 17 16 15 14 13 12 11 11 12 14 15 17 19 20 22 22 22 23 24 24 24 23 21 21 23 24 25 26 27 28 29 31 31 32 33 34 35 36 36 37 38 39 39 40 40 40 40 39 38 38 38 39 40
28 29 29 27 24 22 21 20 18 17 15 14 13 13 12 12 11 12 13 15 15 16 18 20 21 22 23 25 26 25 24 23 23 25 27 28 28 29 29 30 31 31 32 33 34 35 36 36 37 38 38 39 40 40 39 38 38 37 38 39 40 42 43
27 27 25 22 20 20 19 18 16 15 13 12 12 12 13 13 12 13 14 15 16 17 19 22 22 22 24 26 26 25 25 26 27 29 29 29 29 29 30 30 31 31 32 33 34 35 36 36 37 38 38 39 38 38 37 36 37 38 39 41 43 44 44
21 20 18 17 17 18 17 16 15 13 12 11 12 12 13 13 12 13 15 17 18 19 22 24 24 23 24 26 26 27 28 29 30 30 30 29 30 29 30 31 31 32 33 33 34 34 35 35 36 37 36 36 35 35 36 37 38 40 41 43 43 44 44
14 13 14 15 15 16 16 15 14 13 12 12 13 13 13 13 13 14 16 18 20 20 22 25 26 25 25 27 28 30 31 31 31 31 32 32 32 32 32 32 32 33 33 33 34 34 35 35 34 34 33 33 34 35 37 38 40 41 42 43 43 44 45
10 11 12 14 14 15 15 15 14 14 13 14 14 14 15 15 15 16 18 19 19 20 21 24 27 27 28 30 31 32 33 33 33 33 33 33 33 33 33 33 33 34 34 34 34 34 34 33 31 31 32 33 35 37 38 39 40 41 41 43 44 45 46
9 11 12 13 13 13 14 14 14 14 14 15 15 16 16 16 16 17 18 19 19 20 22 25 27 30 31 33 34 34 34 34 34 34 34 34 33 34 34 34 34 34 34 33 33 32 30 30 30 31 33 35 37 38 39 39 40 41 42 44 45 47 47
10 10 11 11 11 12 13 13 14 14 15 16 16 16 17 17 17 18 19 20 21 22 24 26 29 31 32 34 35 35 35 35 35 35 35 36 36 36 36 35 34 33 32 31 29 29 29 30 31 33 34 36 37 38 39 40 40 42 43 44 45 46 46
11 11 11 10 11 12 13 13 14 15 16 17 17 17 17 17 18 19 20 21 23 24 26 28 30 32 33 34 34 35 35 36 36 37 37 38 37 36 34 33 32 31 29 28 28 28 30 31 32 34 35 36 37 38 39 40 40 41 42 42 42 43 42
14 14 13 13 13 13 13 14 15 16 17 18 17 17 17 18 19 20 21 22 24 26 27 29 31 32 33 34 34 35 36 36 37 38 37 36 35 33 31 30 29 28 27 27 28 30 31 32 33 34 35 36 37 38 38 39 39 39 38 39 39 39 38
17 17 16 15 15 15 15 16 16 17 18 18 18 18 18 19 20 21 22 23 25 27 29 31 32 33 33 34 34 35 36 36 36 35 33 32 30 29 27 27 26 26 27 28 30 31 31 32 33 34 35 35 36 37 36 35 35 35 36 36 35 33 32
19 19 18 18 17 16 16 16 17 17 18 18 18 18 19 20 21 22 23 25 27 29 31 31 32 33 33 34 34 34 33 32 31 29 28 27 26 25 24 24 25 27 28 29 30 30 30 31 32 33 35 35 36 35 33 32 32 33 34 32 30 29 29
20 20 20 20 19 17 16 17 17 17 17 18 18 19 20 21 22 24 26 28 29 31 31 31 32 32 32 32 31 30 28 27 26 25 24 23 22 22 22 24 26 28 29 29 29 29 29 30 32 33 34 34 34 33 31 31 32 32 31 28 27 28 28
18 18 19 19 18 17 17 17 17 17 18 18 20 21 21 22 24 25 27 29 30 30 30 31 31 30 29 28 27 25 25 24 23 22 21 20 21 22 24 25 26 26 27 28 28 28 29 31 32 32 32 31 30 30 31 32 33 32 29 26 26 26 26
15 15 15 16 16 16 16 17 17 18 18 20 21 22 23 24 25 27 29 29 30 30 30 29 29 27 26 25 24 23 23 22 21 19 19 20 22 24 25 25 26 25 25 25 26 28 29 30 30 30 30 29 28 28 30 32 33 31 29 26 25 24 23
Wind_Direction
332 342 344 331 227 208 203 220 232 195 172 146 106 94 83 58 52 67 77 83 90 97 109 120 129 135 136 138 142 146 155 165 177 188 200 214 224 228 228 227 229 233 237 238 237 239 242 245 248 249 250 253 257 260 263 264 265 267 269 271 271 270 270
338 348 354 352 214 201 192 191 174 160 165 174 147 100 74 54 50 54 58 61 66 73 81 96 110 123 139 157 170 176 182 189 199 212 226 239 245 244 239 235 235 239 245 248 247 248 251 253 256 258 260 262 265 268 271 272 273 273 272 272 272 272 272
355 358 7 33 187 192 190 188 179 176 185 186 185 153 53 42 44 45 48 47 45 45 46 51 57 262 244 244 239 232 228 225 230 241 253 260 260 257 253 248 247 248 251 254 256 258 259 261 264 266 268 270 271 272 273 274 274 274 273 272 272 272 273
13 10 19 57 179 186 187 185 181 183 180 177 197 212 290 10 23 25 29 29 23 16 3 344 313 290 277 272 266 262 260 259 261 264 268 270 267 265 263 261 259 257 257 259 261 264 267 269 271 272 274 275 276 276 276 276 275 274 274 273 273 273 273
26 21 20 37 178 184 185 183 183 182 179 193 225 238 273 336 354 350 349 350 343 331 317 304 295 292 289 286 282 279 277 274 273 274 273 273 272 270 269 268 268 267 267 268 269 270 272 274 275 276 277 278 278 278 278 277 277 276 276 275 275 275 275
36 29 19 16 180 186 184 184 189 188 188 218 243 258 281 312 324 319 318 318 316 311 305 302 301 299 295 291 287 285 283 282 279 278 277 277 277 276 274 274 274 274 274 275 275 276 276 277 277 278 279 280 280 280 280 279 279 278 278 277 276 276 276
36 35 27 21 44 189 186 187 193 190 196 218 231 243 259 279 288 292 300 305 307 306 304 304 303 299 295 290 288 287 286 285 284 282 281 280 280 280 279 279 279 279 279 279 279 279 279 279 279 280 281 281 282 282 282 281 281 280 280 279 279 278 278
33 34 33 36 40 150 185 192 195 192 205 222 229 240 252 264 273 283 297 302 302 301 301 301 300 297 295 294 293 292 290 288 285 284 283 282 282 282 282 283 283 283 283 283 283 283 282 282 282 282 282 282 282 282 282 282 282 282 282 282 282 282 282
31 30 29 36 45 60 143 195 209 213 225 232 236 247 257 267 277 287 293 293 291 291 292 294 294 294 293 292 291 289 289 288 289 289 289 289 289 289 289 289 288 288 287 287 286 285 284 284 283 283 283 283 283 283 283 284 285 285 286 286 286 286 286
28 27 23 24 30 39 61 143 220 229 235 241 247 256 263 269 275 279 281 283 284 285 287 288 289 289 288 287 286 286 288 290 292 293 294 294 293 293 293 292 290 289 288 287 286 285 285 284 284 284 285 285 286 286 287 288 288 289 289 289 289 289 289
18 18 18 18 15 14 23 59 145 222 244 257 260 265 268 270 273 275 278 281 283 285 286 286 284 284 283 283 284 286 288 290 292 293 293 293 293 292 291 290 289 288 287 287 286 286 286 286 286 287 288 288 289 289 289 290 290 290 290 290 290 290 290
9 11 12 16 13 6 359 353 47 111 138 271 276 276 277 278 281 283 286 287 287 286 284 282 281 282 284 286 289 291 293 294 294 294 294 293 292 291 290 289 288 288 288 288 288 288 288 288 289 289 290 290 290 290 290 290 290 290 290 290 291 292 292
8 9 8 12 14 12 9 354 314 195 107 11 325 314 306 303 300 296 293 288 284 282 281 283 287 291 295 297 298 299 297 296 294 293 292 291 290 289 288 288 288 289 289 289 289 289 289 289 289 290 290 290 290 291 291 291 291 291 292 293 294 294 294
11 11 7 9 12 12 15 10 341 317 318 316 315 311 305 305 300 293 289 286 286 288 292 297 301 304 306 304 301 298 295 292 291 290 290 289 289 288 288 289 289 289 289 290 289 289 290 290 290 290 291 291 290 290 290 290 291 292 293 294 294 294 294
12 11 3 3 4 1 4 4 353 339 327 317 312 305 297 294 291 290 290 292 296 300 305 309 311 310 306 300 295 291 289 288 288 289 289 289 289 289 289 289 289 289 290 290 290 291 291 291 291 291 291 290 290 291 292 292 293 293 293 293 293 293 293
8 7 359 354 352 351 352 351 350 347 339 330 321 307 292 284 282 285 289 292 298 304 309 312 311 306 299 293 290 288 287 287 287 287 288 288 288 287 287 286 287 287 289 289 289 290 290 290 290 291 292 294 295 297 297 297 296 295 294 294 295 295 295
358 360 355 347 341 342 344 341 341 346 347 342 328 307 292 284 282 286 291 295 301 306 310 311 306 299 294 290 289 288 288 287 288 288 289 289 288 287 286 285 285 285 286 287 287 287 287 287 288 291 294 297 299 301 300 298 297 297 297 297 298 298 297
348 350 350 344 336 336 338 335 331 330 332 332 322 311 301 294 292 295 297 302 307 309 309 306 301 295 291 290 291 292 292 292 293 294 293 292 291 290 289 288 285 284 285 286 287 285 283 283 285 289 294 297 299 300 300 299 298 298 299 299 298 298 297
340 342 344 342 336 333 334 334 329 322 318 315 312 311 308 302 300 300 302 307 309 309 305 300 297 294 294 298 300 300 300 301 302 301 299 298 295 292 291 291 288 287 287 288 289 289 286 283 283 286 291 295 298 299 299 299 299 300 300 299 298 298 297
329 334 338 338 333 331 333 335 330 323 316 311 309 311 311 308 305 304 306 309 307 303 300 297 297 300 306 310 309 308 308 308 307 306 306 308 304 296 292 294 296 295 294 293 295 297 297 292 288 288 292 296 298 299 299 300 301 300 300 299 299 298 298
319 326 332 332 329 325 327 330 329 324 319 313 312 314 316 315 312 308 307 306 302 299 297 297 302 309 314 314 310 308 310 311 310 310 311 314 313 304 298 298 301 302 301 300 301 303 303 300 296 295 295 297 299 300 301 301 300 300 299 299 298 298 297
311 317 322 325 324 320 318 320 322 321 318 316 317 319 322 321 316 311 305 301 298 298 298 301 306 310 310 310 310 311 312 312 314 314 314 315 315 313 308 304 303 302 302 303 304 303 302 301 299 299 299 299 300 301 301 300 299 299 298 298 298 297 297
306 311 314 316 317 314 312 313 315 316 316 317 320 322 323 320 315 308 300 296 297 300 302 305 307 306 306 310 315 316 315 314 315 316 315 316 315 313 309 306 304 303 303 303 302 301 301 300 300 300 301 301 301 301 300 300 300 300 300 299 299 298 298
300 305 308 309 309 307 307 310 312 314 316 319 322 322 319 314 308 299 293 294 298 303 307 310 310 310 312 315 316 317 317 315 314 316 317 316 314 310 308 306 306 304 304 303 302 301 301 301 302 303 303 303 302 302 302 302 302 301 301 300 300 300 300
296 300 302 302 300 299 303 309 311 314 317 318 319 318 312 307 300 293 291 292 295 302 309 310 313 319 319 313 310 311 314 314 314 317 317 314 312 310 309 308 307 306 306 305 305 305 305 306 306 306 306 305 305 304 304 304 303 303 302 302 303 302 302
293 295 294 293 293 296 302 308 311 313 315 316 318 317 312 307 299 290 287 284 287 298 304 307 314 321 316 309 308 310 313 315 315 315 313 311 309 309 310 310 309 309 309 308 308 308 308 308 308 308 307 306 306 306 305 305 305 305 305 305 304 304 303
289 290 289 289 292 298 303 307 310 312 315 318 321 320 315 312 303 292 285 284 290 300 304 307 315 317 310 307 310 313 314 315 314 313 312 312 313 314 314 314 313 312 311 310 309 309 310 310 309 308 307 307 307 306 306 306 306 306 306 305 304 304 303
292 292 291 293 296 299 302 305 309 314 317 319 320 318 315 312 305 296 291 292 297 302 303 306 311 311 307 309 312 314 315 316 316 316 317 318 319 319 318 316 315 314 313 312 312 312 312 311 310 309 309 308 307 307 307 307 307 307 307 306 305 304 303
291 293 295 297 300 300 302 307 312 316 317 317 315 313 310 307 303 300 298 299 301 302 301 304 308 310 311 313 314 315 317 318 318 319 320 320 320 319 317 316 315 314 314 314 314 313 312 311 311 310 310 310 309 308 308 308 309 309 308 307 306 305 304
285 293 296 297 297 299 303 309 314 316 314 312 309 307 306 306 307 306 307 307 306 305 305 306 308 310 312 313 315 316 317 317 317 318 319 318 317 315 314 314 314 314 314 313 313 312 312 312 312 312 312 311 310 310 310 311 311 310 308 308 307 307 307
284 291 293 294 296 299 304 309 312 311 310 308 307 307 308 310 311 310 309 308 307 306 306 306 307 308 310 311 312 313 314 314 315 315 314 313 312 312 312 313 313 313 313 313 314 314 314 314 314 314 312 312 311 311 312 312 311 311 310 311 311 311 312
276 277 283 292 300 303 304 305 305 305 307 308 308 307 307 307 307 305 304 303 303 304 304 305 305 307 308 309 310 310 311 311 311 310 309 309 310 311 312 313 314 314 316 317 317 316 316 315 315 314 313 312 312 312 312 312 313 314 315 315 316 316 315
270 273 280 289 297 302 301 300 300 302 306 307 306 304 303 301 299 299 299 300 302 304 305 305 306 307 308 309 310 310 310 309 309 308 309 310 311 312 313 315 316 317 319 319 317 316 316 315 315 314 313 313 313 313 314 315 317 318 319 320 319 318 316
269 273 279 283 288 292 293 293 295 298 302 303 301 300 298 296 296 298 300 303 305 306 307 308 308 309 309 310 309 309 308 308 308 308 309 310 312 314 316 317 318 318 318 317 316 316 316 316 315 314 313 313 314 315 318 321 322 323 323 322 319 316 313
268 271 275 277 278 281 284 287 289 293 296 297 296 295 294 295 299 303 305 307 308 308 309 309 309 309 309 309 308 308 308 308 308 310 312 314 316 318 319 318 317 317 316 315 316 317 317 316 314 313 314 315 316 319 323 326 327 326 325 322 317 313 313
265 269 271 270 268 270 276 281 284 287 291 292 292 292 295 300 305 308 309 309 309 309 309 308 308 308 309 308 308 309 310 311 312 314 316 317 318 319 318 317 316 315 315 316 317 317 316 315 314 315 317 318 320 323 327 329 329 328 327 323 318 316 319
263 267 266 262 260 264 271 277 281 285 288 289 291 295 300 305 308 310 310 309 308 308 308 309 309 310 310 310 310 312 313 315 316 318 319 319 318 317 316 316 315 315 316 317 317 318 317 317 318 319 320 322 326 330 332 332 332 332 332 328 323 323 328
262 264 260 256 257 262 269 274 278 283 286 289 293 298 303 307 309 309 309 308 308 309 310 311 311 311 311 312 313 315 316 317 318 319 319 318 317 316 316 316 316 317 317 318 319 320 321 321 321 322 323 327 332 334 334 334 335 336 336 333 330 330 336
Height
5884 5883 5882 5881 5881 5881 5880 5880 5880 5880 5881 5881 5882 5883 5885 5886 5886 5887 5887 5888 5888 5889 5889 5889 5890 5890 5890 5891 5891 5892 5893 5894 5895 5895 5896 5896 5897 5897 5898 5898 5898 5898 5898 5898 5899 5899 5899 5899 5899 5899 5899 5899 5899 5900 5900 5900 5899 5899 5899 5899 5899 5898 5898
5884 5883 5882 5881 5881 5881 5881 5881 5881 5881 5881 5882 5883 5883 5884 5885 5886 5887 5887 5887 5888 5888 5889 5889 5890 5890 5891 5892 5892 5893 5893 5894 5895 5896 5896 5897 5897 5898 5898 5898 5898 5898 5898 5898 5898 5898 5898 5898 5898 5898 5898 5898 5898 5898 5898 5898 5898 5898 5898 5898 5897 5897 5897
5883 5882 5882 5881 5881 5882 5882 5882 5882 5882 5882 5883 5883 5884 5885 5886 5886 5887 5887 5887 5888 5888 5889 5890 5890 5891 5892 5892 5893 5893 5893 5894 5895 5895 5896 5897 5897 5897 5898 5898 5898 5898 5898 5898 5898 5898 5898 5898 5898 5897 5897 5897 5897 5897 5897 5897 5896 5896 5896 5896 5895 5895 5894
5883 5882 5882 5882 5881 5882 5882 5883 5883 5883 5883 5884 5885 5885 5886 5886 5887 5887 5887 5888 5888 5889 5889 5890 5891 5891 5892 5892 5893 5893 5893 5894 5894 5895 5896 5896 5897 5897 5897 5897 5898 5898 5898 5898 5898 5897 5897 5897 5897 5896 5896 5896 5896 5895 5895 5895 5894 5894 5894 5893 5892 5892 5891
5883 5882 5882 5882 5881 5882 5883 5883 5884 5884 5884 5885 5885 5886 5886 5887 5887 5887 5888 5888 5889 5889 5890 5890 5891 5891 5892 5892 5893 5893 5893 5894 5894 5895 5895 5896 5896 5896 5896 5896 5897 5897 5897 5897 5896 5896 5896 5896 5895 5895 5894 5894 5894 5893 5893 5892 5892 5891 5891 5890 5889 5888 5888
5884 5883 5882 5882 5882 5882 5883 5884 5884 5885 5885 5886 5886 5886 5886 5887 5887 5887 5888 5888 5889 5889 5890 5890 5891 5891 5892 5892 5893 5893 5893 5893 5894 5894 5894 5895 5895 5895 5895 5895 5895 5895 5895 5895 5895 5895 5894 5894 5893 5893 5892 5892 5891 5891 5890 5890 5889 5888 5887 5887 5886 5885 5884
5885 5884 5882 5882 5882 5882 5883 5884 5885 5885 5886 5886 5886 5886 5886 5887 5887 5888 5888 5888 5889 5889 5889 5890 5890 5891 5891 5892 5892 5892 5893 5893 5893 5893 5893 5893 5893 5893 5893 5893 5893 5893 5893 5893 5893 5892 5892 5892 5891 5890 5890 5889 5888 5887 5887 5886 5885 5884 5883 5883 5882 5881 5880
5886 5885 5884 5883 5882 5882 5883 5884 5885 5886 5886 5886 5886 5886 5886 5886 5887 5887 5888 5888 5888 5889 5889 5889 5890 5890 5891 5891 5891 5892 5892 5892 5892 5893 5893 5893 5892 5892 5892 5892 5892 5891 5891 5891 5890 5890 5889 5889 5888 5887 5887 5886 5885 5884 5883 5882 5881 5880 5879 5878 5877 5876 5875
5887 5886 5885 5884 5883 5883 5884 5884 5885 5885 5885 5885 5885 5885 5885 5886 5886 5887 5887 5888 5888 5888 5888 5889 5889 5890 5890 5890 5890 5891 5891 5891 5891 5891 5891 5891 5891 5891 5890 5890 5890 5889 5889 5888 5888 5887 5886 5886 5885 5884 5883 5882 5881 5880 5879 5878 5877 5876 5875 5874 5873 5872 5871
5888 5887 5886 5885 5884 5884 5884 5884 5884 5884 5884 5884 5884 5885 5885 5886 5886 5886 5887 5887 5887 5888 5888 5888 5888 5888 5889 5889 5889 5889 5889 5889 5890 5889 5889 5889 5889 5888 5888 5888 5887 5887 5886 5885 5885 5884 5883 5882 5881 5880 5879 5878 5877 5876 5875 5874 5873 5872 5871 5870 5868 5867 5866
5888 5888 5887 5886 5886 5885 5884 5884 5884 5883 5883 5884 5884 5884 5884 5885 5885 5885 5886 5886 5886 5886 5887 5887 5887 5887 5887 5888 5888 5888 5888 5888 5888 5888 5887 5887 5886 5886 5886 5885 5884 5884 5883 5882 5881 5881 5880 5879 5877 5876 5875 5874 5873 5872 5871 5870 5869 5868 5867 5865 5864 5863 5862
5888 5888 5887 5886 5886 5885 5884 5884 5883 5883 5883 5883 5883 5883 5883 5883 5884 5884 5884 5885 5885 5885 5886 5886 5886 5886 5886 5887 5887 5887 5887 5886 5886 5885 5884 5884 5883 5883 5882 5881 5881 5880 5879 5879 5878 5877 5876 5875 5874 5873 5872 5870 5869 5868 5867 5866 5865 5864 5862 5861 5860 5859 5858
5889 5888 5887 5886 5885 5885 5884 5883 5883 5883 5882 5882 5882 5882 5882 5883 5883 5883 5883 5884 5884 5884 5884 5885 5885 5885 5886 5886 5885 5885 5884 5883 5883 5882 5881 5880 5879 5879 5878 5877 5877 5876 5876 5875 5874 5873 5872 5871 5870 5869 5868 5867 5866 5864 5863 5862 5861 5859 5858 5857 5856 5854 5853
5889 5888 5887 5886 5885 5884 5884 5883 5883 5883 5882 5882 5882 5882 5882 5882 5882 5882 5882 5883 5883 5883 5883 5884 5884 5884 5884 5883 5882 5881 5880 5879 5879 5878 5877 5876 5875 5875 5874 5874 5873 5873 5872 5871 5870 5869 5868 5867 5866 5865 5864 5863 5862 5860 5859 5858 5856 5855 5854 5852 5851 5850 5848
5889 5888 5887 5885 5884 5884 5883 5883 5882 5882 5882 5882 5881 5881 5881 5881 5881 5881 5881 5881 5882 5882 5882 5882 5882 5881 5880 5879 5878 5877 5876 5875 5875 5874 5873 5873 5872 5871 5871 5871 5870 5869 5868 5867 5866 5865 5864 5863 5862 5861 5860 5859 5857 5856 5855 5853 5852 5850 5849 5848 5846 5845 5843
5888 5887 5886 5885 5884 5883 5883 5882 5881 5881 5881 5881 5880 5880 5880 5880 5880 5880 5880 5880 5880 5880 5880 5879 5879 5877 5876 5875 5874 5873 5872 5872 5871 5871 5870 5870 5869 5868 5867 5867 5867 5866 5865 5864 5863 5862 5860 5859 5858 5857 5856 5854 5853 5852 5851 5849 5847 5846 5844 5843 5841 5840 5838
5887 5886 5886 5884 5883 5882 5882 5881 5880 5880 5880 5879 5879 5879 5879 5878 5878 5878 5878 5878 5878 5878 5878 5877 5876 5874 5872 5871 5870 5870 5870 5869 5869 5869 5868 5868 5866 5865 5864 5864 5863 5862 5861 5860 5859 5858 5857 5856 5855 5853 5852 5850 5849 5848 5846 5844 5843 5841 5839 5838 5836 5835 5833
5886 5885 5885 5884 5882 5881 5881 5880 5879 5879 5878 5878 5878 5878 5877 5877 5877 5877 5877 5876 5876 5876 5875 5874 5873 5871 5870 5869 5868 5868 5867 5867 5867 5866 5866 5865 5863 5862 5861 5860 5859 5858 5858 5857 5856 5854 5852 5851 5850 5849 5848 5847 5845 5844 5842 5840 5838 5837 5835 5833 5832 5830 5829
5885 5884 5884 5883 5881 5880 5879 5878 5878 5878 5877 5877 5877 5877 5876 5876 5876 5875 5875 5875 5874 5874 5873 5871 5870 5868 5867 5867 5867 5866 5866 5865 5864 5863 5862 5861 5860 5858 5857 5856 5855 5854 5853 5853 5851 5849 5847 5846 5846 5845 5844 5842 5841 5839 5838 5836 5834 5832 5831 5829 5827 5825 5824
5884 5883 5883 5882 5880 5879 5878 5877 5876 5876 5876 5876 5875 5875 5875 5874 5874 5874 5873 5873 5872 5871 5870 5869 5867 5867 5867 5867 5866 5865 5864 5863 5861 5860 5859 5857 5856 5854 5853 5852 5851 5850 5850 5849 5847 5845 5844 5843 5842 5841 5840 5838 5837 5835 5833 5832 5830 5828 5826 5824 5822 5820 5818
5883 5882 5881 5880 5879 5878 5876 5875 5875 5875 5874 5874 5874 5873 5873 5873 5873 5872 5872 5871 5870 5869 5867 5866 5866 5866 5866 5866 5864 5863 5862 5860 5858 5856 5855 5854 5852 5850 5849 5849 5849 5848 5847 5846 5844 5842 5841 5840 5838 5837 5836 5834 5833 5831 5829 5828 5826 5824 5822 5819 5817 5815 5813
5881 5880 5880 5879 5878 5877 5875 5874 5873 5873 5872 5872 5872 5871 5871 5871 5871 5870 5870 5868 5867 5866 5865 5865 5865 5865 5864 5862 5862 5860 5859 5858 5856 5855 5853 5852 5850 5848 5847 5847 5847 5845 5844 5843 5841 5839 5838 5837 5835 5834 5832 5830 5829 5827 5825 5823 5821 5819 5817 5815 5812 5810 5808
5880 5879 5878 5877 5876 5875 5873 5872 5871 5871 5870 5870 5870 5869 5869 5869 5869 5868 5867 5866 5865 5865 5864 5863 5863 5862 5860 5860 5859 5858 5857 5855 5854 5853 5852 5850 5849 5847 5846 5845 5844 5843 5841 5839 5838 5836 5835 5833 5832 5830 5828 5826 5825 5823 5821 5819 5816 5814 5812 5809 5807 5805 5803
5878 5877 5876 5875 5874 5873 5872 5871 5870 5869 5869 5869 5868 5868 5868 5868 5867 5866 5865 5865 5864 5863 5862 5861 5860 5859 5859 5858 5857 5856 5855 5853 5852 5851 5850 5849 5847 5846 5844 5842 5841 5839 5838 5836 5834 5833 5831 5829 5828 5826 5824 5821 5819 5818 5815 5813 5811 5809 5806 5804 5802 5800 5798
5876 5875 5874 5873 5872 5871 5870 5869 5869 5868 5868 5867 5867 5867 5867 5866 5866 5865 5864 5864 5863 5862 5861 5859 5859 5859 5858 5856 5854 5854 5853 5852 5851 5850 5849 5847 5845 5843 5841 5840 5838 5837 5835 5833 5831 5829 5827 5825 5823 5821 5819 5816 5814 5812 5810 5808 5805 5804 5801 5799 5796 5794 5791
5874 5873 5872 5871 5870 5870 5869 5869 5868 5868 5867 5866 5866 5866 5866 5866 5865 5864 5864 5863 5861 5860 5859 5858 5858 5858 5856 5853 5852 5851 5851 5850 5849 5848 5847 5845 5843 5841 5839 5837 5836 5834 5832 5830 5827 5825 5823 5821 5819 5816 5814 5812 5809 5807 5805 5803 5801 5799 5797 5794 5791 5788 5785
5871 5870 5870 5869 5869 5869 5868 5868 5867 5867 5866 5866 5865 5865 5865 5865 5864 5863 5862 5861 5860 5858 5857 5856 5856 5856 5855 5852 5851 5850 5850 5848 5847 5846 5844 5842 5840 5838 5836 5834 5832 5830 5828 5826 5824 5822 5819 5817 5815 5812 5810 5808 5805 5803 5801 5799 5797 5794 5792 5789 5786 5783 5780
5869 5869 5869 5868 5868 5868 5867 5867 5866 5866 5865 5865 5865 5865 5864 5863 5863 5862 5860 5859 5858 5857 5855 5853 5853 5853 5853 5851 5850 5848 5847 5845 5843 5841 5839 5837 5835 5834 5832 5830 5828 5826 5824 5822 5820 5817 5815 5813 5811 5808 5806 5804 5801 5799 5797 5795 5793 5790 5787 5784 5780 5777 5774
5867 5867 5867 5867 5867 5867 5866 5866 5865 5865 5864 5864 5864 5863 5863 5862 5861 5860 5859 5858 5857 5855 5853 5851 5850 5850 5850 5849 5847 5845 5843 5841 5840 5838 5836 5834 5832 5831 5829 5827 5825 5823 5820 5818 5816 5813 5811 5809 5807 5805 5803 5800 5797 5795 5793 5791 5788 5785 5782 5778 5774 5771 5767
5865 5865 5865 5865 5865 5865 5865 5865 5864 5863 5863 5863 5863 5862 5861 5861 5860 5859 5857 5856 5855 5854 5853 5851 5849 5848 5847 5846 5844 5843 5841 5839 5838 5836 5834 5832 5830 5828 5826 5824 5822 5819 5817 5814 5812 5810 5808 5806 5804 5802 5799 5796 5794 5791 5789 5786 5783 5780 5776 5773 5769 5765 5761
5864 5864 5864 5864 5864 5864 5863 5863 5862 5862 5862 5861 5861 5861 5860 5859 5858 5857 5856 5855 5854 5853 5852 5850 5848 5847 5845 5844 5842 5841 5839 5837 5836 5834 5832 5830 5828 5825 5823 5821 5818 5816 5814 5812 5810 5808 5805 5803 5801 5799 5796 5793 5790 5787 5784 5782 5779 5775 5771 5767 5763 5759 5755
5862 5862 5862 5862 5862 5862 5861 5861 5861 5860 5860 5860 5859 5859 5858 5858 5857 5856 5855 5854 5853 5852 5850 5848 5847 5845 5844 5842 5841 5839 5837 5835 5833 5831 5829 5826 5824 5822 5820 5817 5815 5813 5811 5809 5807 5805 5803 5800 5798 5795 5793 5790 5787 5784 5781 5778 5774 5771 5767 5763 5759 5755 5751
5860 5860 5860 5860 5860 5860 5859 5859 5859 5859 5859 5858 5858 5858 5857 5856 5856 5855 5854 5853 5851 5850 5848 5847 5845 5844 5842 5840 5838 5836 5834 5832 5830 5827 5825 5823 5820 5819 5816 5814 5812 5810 5808 5806 5804 5802 5800 5798 5795 5792 5789 5786 5783 5780 5777 5774 5770 5767 5763 5759 5755 5751 5747
5858 5858 5858 5858 5859 5858 5858 5858 5857 5857 5857 5857 5857 5856 5855 5854 5854 5853 5852 5851 5849 5848 5846 5844 5843 5841 5840 5838 5836 5834 5831 5829 5827 5824 5822 5820 5818 5816 5814 5812 5810 5808 5806 5804 5802 5800 5798 5795 5792 5789 5786 5783 5780 5777 5774 5771 5767 5763 5760 5756 5753 5749 5746
5856 5856 5856 5857 5857 5857 5857 5856 5856 5856 5856 5855 5855 5854 5853 5852 5851 5851 5849 5848 5847 5845 5844 5842 5841 5839 5837 5835 5833 5831 5829 5826 5824 5822 5820 5817 5816 5814 5812 5810 5808 5807 5805 5802 5800 5798 5796 5793 5789 5786 5783 5780 5777 5774 5771 5768 5765 5761 5757 5753 5749 5746 5743
5854 5854 5854 5854 5855 5855 5855 5855 5855 5854 5854 5853 5852 5852 5851 5850 5849 5848 5847 5845 5844 5843 5842 5840 5839 5837 5835 5833 5831 5829 5826 5824 5822 5820 5818 5816 5814 5813 5811 5809 5807 5805 5803 5800 5798 5796 5793 5790 5787 5783 5780 5777 5774 5771 5768 5765 5762 5758 5755 5751 5747 5743 5740
5852 5852 5852 5852 5852 5853 5853 5853 5853 5852 5852 5851 5850 5849 5848 5847 5846 5846 5844 5843 5842 5841 5840 5838 5836 5834 5833 5830 5828 5826 5824 5822 5820 5818 5816 5815 5813 5812 5810 5808 5806 5803 5801 5798 5796 5794 5791 5787 5784 5780 5777 5774 5771 5768 5764 5761 5758 5754 5751 5747 5744 5741 5737
5849 5849 5849 5850 5850 5851 5851 5851 5851 5850 5849 5849 5848 5847 5846 5845 5844 5844 5842 5841 5840 5839 5837 5836 5834 5832 5830 5828 5826 5824 5822 5820 5818 5817 5816 5814 5812 5810 5808 5806 5803 5801 5799 5797 5794 5791 5788 5784 5780 5777 5774 5771 5768 5766 5762 5759 5755 5752 5748 5745 5742 5738 5735